ECHOSTAR 11

Last updated on Wed Oct 22 2025 00:02:46 GMT+0000 (Coordinated Universal Time)

1 33207U 08035A 25294.60019359 -.00000049 00000+0 00000+0 0 9998 2 33207 0.3837 86.6646 0002356 108.4650 301.2483 1.00272469 48828
UTC large
Height (km)
Speed (km/s)
/
Latitude / Longitude
Inclination (degrees)
Orbital Period (minutes)
Azimuth
Elevation
Range (km)
Doppler Factor

Next 0 passes for location: London (51.5072 / 0.1276)

Sorry there are no passes over London.